Wind_Speed
39 37 36 33 30 28 27 26 26 26 26 26 25 24 25 25 25 25 26 27 28 28 28 29 29 30 30 31 33 34 35 35 35 35 35 35 35 35
37 35 33 32 29 27 27 26 25 26 26 27 26 26 27 27 27 27 28 29 30 30 30 30 30 31 31 31 32 32 33 34 34 34 35 35 35 34
34 33 32 29 27 26 25 24 25 25 26 27 28 28 28 29 30 30 31 31 32 33 33 32 32 31 31 32 33 33 33 33 34 34 34 34 35 35
33 31 30 28 26 25 25 25 25 26 27 28 29 29 30 31 33 34 34 34 35 35 35 35 35 34 33 33 33 34 34 33 33 33 33 34 35 35
31 30 29 28 26 25 25 25 25 26 27 28 29 31 32 33 34 35 36 37 38 38 38 38 37 36 35 35 34 34 34 34 33 33 33 33 34 34
32 30 28 27 25 23 24 24 25 25 26 28 29 31 33 34 36 37 38 39 40 40 40 39 39 38 37 36 36 35 34 34 33 32 31 32 33 33
28 27 24 22 21 21 22 22 23 24 26 28 30 32 34 35 37 38 40 40 41 42 42 41 40 40 39 38 37 36 35 34 33 32 32 31 32 33
21 21 19 19 19 19 20 21 22 24 26 28 30 32 34 36 37 39 40 41 42 42 43 42 42 41 40 39 38 36 35 35 34 33 33 32 32 33
15 15 14 15 15 17 18 19 21 23 25 27 30 32 34 35 37 38 40 41 42 42 42 41 41 41 40 39 38 36 35 35 35 35 34 33 32 32
12 12 12 12 13 14 16 18 20 22 24 26 28 31 33 34 36 37 37 38 39 40 40 39 39 39 38 38 37 37 36 36 35 35 35 33 33 32
10 10 10 11 11 12 14 16 18 20 23 25 28 30 31 33 34 35 35 36 36 36 36 36 36 36 36 35 35 35 36 35 35 34 35 34 33 33
8 8 8 9 9 10 12 15 17 19 22 24 26 28 30 31 32 32 32 33 33 33 33 33 33 33 33 33 33 33 33 34 34 34 34 35 34 33
7 7 7 7 8 10 12 14 17 19 21 23 26 28 29 30 30 29 29 29 29 29 29 29 29 30 31 31 32 32 31 32 31 32 33 34 34 33
6 6 6 7 9 10 12 14 17 19 21 24 26 28 29 29 29 28 27 27 27 26 26 26 26 27 28 29 28 29 29 29 29 31 32 33 32 32
6 6 6 7 9 10 12 15 17 20 22 25 27 28 29 29 28 27 26 25 25 25 25 25 24 24 25 25 26 27 28 28 27 29 32 32 32 32
7 7 7 8 9 11 13 15 17 20 22 25 27 28 29 29 28 27 25 25 24 23 24 24 23 22 22 23 23 24 25 27 27 26 28 29 29 30
8 8 9 10 11 12 13 15 17 20 22 25 27 28 30 30 29 27 25 24 23 23 22 22 22 21 21 21 22 23 24 24 25 25 25 26 27 28
10 10 10 11 12 13 14 16 18 20 23 25 27 28 30 30 29 27 25 24 23 22 22 21 20 20 20 20 21 22 23 24 24 24 26 26 26 27
12 12 12 13 13 14 15 16 18 20 23 25 27 28 29 30 29 28 26 25 23 22 21 20 19 19 19 19 20 20 21 22 23 23 24 25 26 26
14 14 14 14 15 15 16 17 19 21 23 25 26 28 29 30 30 28 26 25 23 22 21 19 18 18 18 19 20 20 20 20 21 22 23 24 25 26
16 16 16 16 16 17 17 18 20 21 23 25 27 28 29 30 30 29 27 25 24 23 22 20 18 17 17 18 19 20 20 21 22 22 23 23 25 26
18 17 17 17 18 18 19 20 21 22 24 25 27 28 29 30 30 29 28 27 25 24 23 21 19 18 18 18 18 20 21 21 22 23 24 25 26 27
20 20 20 19 19 20 21 21 22 23 24 26 27 28 30 31 31 30 29 28 27 25 24 22 20 18 18 18 18 19 21 22 23 24 24 25 26 27
Wind_Direction
266 265 258 255 254 253 254 254 257 260 264 267 268 271 274 274 275 277 278 280 281 283 284 284 285 283 281 278 275 274 272 268 266 264 260 257 253 248
262 258 254 253 251 253 253 253 256 260 263 267 270 272 274 276 278 278 279 280 281 281 282 283 284 283 280 278 276 274 272 269 265 263 261 257 253 246
258 255 253 251 248 251 253 255 258 261 265 268 271 274 276 279 280 280 280 281 281 281 282 282 282 282 280 277 275 274 272 270 266 263 261 256 252 246
255 254 251 249 250 253 254 256 260 264 267 270 273 276 277 279 280 281 281 281 281 281 280 280 279 279 278 277 274 273 271 269 266 262 259 256 251 244
251 248 248 251 251 253 257 259 263 266 268 271 274 277 278 280 280 281 281 281 280 280 279 277 277 276 276 275 274 272 270 267 264 261 257 254 248 242
244 244 245 248 250 254 259 262 265 269 272 275 278 279 280 281 281 281 281 280 279 278 277 276 274 273 273 272 271 270 268 264 262 258 255 251 244 239
238 237 240 244 249 254 259 265 269 273 277 279 281 282 282 283 283 283 282 281 279 278 276 275 273 271 269 268 268 268 266 261 257 256 254 249 243 238
234 232 235 242 251 258 264 269 273 277 280 282 284 285 286 286 286 285 284 282 280 278 277 274 272 270 268 266 265 266 264 260 256 254 251 249 245 238
239 237 239 247 257 264 270 276 280 283 286 288 289 291 291 291 290 289 287 285 282 279 276 274 271 269 267 265 263 262 261 259 257 252 248 246 243 239
237 239 245 254 263 269 276 281 285 288 291 293 295 296 296 296 294 292 290 287 284 281 276 274 270 268 266 264 262 259 257 256 255 251 246 245 242 240
234 240 249 258 266 275 281 287 292 296 299 301 302 303 303 302 299 297 294 290 286 283 279 275 272 268 265 262 260 257 254 253 252 249 244 243 240 239
232 240 249 260 270 282 291 298 303 307 309 310 311 311 311 309 305 302 298 294 289 285 281 278 273 268 264 261 258 254 252 249 249 247 244 240 238 236
235 242 253 268 282 295 304 310 314 316 319 320 320 320 320 316 312 307 303 299 294 290 285 280 275 269 264 260 256 254 249 246 246 245 243 241 240 238
239 250 268 285 298 307 313 318 322 326 328 329 329 328 327 323 318 313 308 304 299 295 289 283 278 271 266 261 256 253 250 247 245 243 241 238 239 239
250 264 281 294 303 311 319 326 331 334 336 335 334 333 331 329 324 319 314 309 304 298 292 287 282 276 269 263 258 253 249 246 243 239 238 236 237 237
260 272 286 298 307 317 324 331 335 338 339 339 338 337 335 333 329 324 318 312 308 303 295 289 285 278 271 266 260 255 250 247 240 237 235 234 232 232
264 275 288 299 308 316 323 331 336 339 340 340 340 339 338 336 332 327 323 317 312 307 302 294 286 277 270 266 263 257 252 249 244 240 234 228 226 226
268 277 287 295 304 311 320 328 335 338 340 340 339 339 338 337 335 331 326 323 318 313 307 299 290 279 269 264 262 259 254 252 251 245 239 234 231 228
269 275 283 291 300 309 317 325 330 334 336 338 339 339 338 337 336 333 329 325 322 318 313 305 295 284 273 265 261 258 253 250 247 245 240 238 234 230
268 273 279 287 296 304 313 320 324 328 332 335 336 337 338 338 338 336 333 329 324 321 318 311 301 291 279 267 260 257 252 249 247 246 243 241 238 236
269 273 279 285 291 298 306 313 318 321 326 330 332 334 336 338 339 339 336 333 328 323 320 315 304 295 286 275 264 258 253 250 246 243 243 240 237 237
270 273 278 283 288 294 300 307 312 316 321 325 329 331 333 335 337 337 338 336 332 327 323 318 310 298 289 280 270 261 255 251 248 245 244 242 239 238
270 272 276 281 285 290 296 302 307 312 316 320 325 328 331 333 334 335 335 335 334 330 326 321 314 305 293 284 276 266 259 254 250 247 245 243 242 242
Height
5763 5764 5764 5766 5768 5770 5772 5774 5777 5778 5779 5779 5781 5782 5783 5783 5784 5784 5784 5783 5783 5782 5782 5782 5781 5781 5780 5780 5780 5779 5779 5780 5780 5781 5782 5783 5785 5787
5753 5754 5756 5757 5759 5762 5764 5767 5768 5770 5771 5772 5773 5774 5774 5775 5775 5775 5775 5775 5774 5774 5774 5773 5773 5772 5771 5771 5770 5770 5770 5770 5771 5772 5773 5774 5776 5778
5744 5746 5748 5749 5751 5754 5757 5759 5761 5762 5763 5764 5765 5766 5766 5766 5766 5766 5766 5766 5766 5765 5765 5764 5764 5763 5762 5761 5761 5761 5761 5761 5761 5762 5763 5764 5766 5769
5735 5738 5740 5742 5744 5747 5749 5752 5754 5755 5756 5757 5757 5758 5758 5758 5757 5757 5757 5756 5756 5755 5754 5754 5753 5753 5752 5752 5751 5751 5751 5751 5752 5752 5753 5755 5757 5759
5727 5730 5733 5735 5737 5740 5742 5744 5746 5747 5748 5749 5749 5749 5749 5749 5748 5747 5746 5745 5745 5744 5743 5743 5742 5742 5742 5741 5741 5741 5741 5741 5742 5742 5743 5745 5747 5749
5719 5722 5725 5728 5731 5733 5735 5737 5738 5739 5740 5740 5741 5740 5740 5739 5738 5737 5735 5734 5733 5732 5731 5731 5730 5730 5730 5730 5730 5730 5730 5731 5732 5733 5734 5735 5737 5740
5712 5715 5718 5722 5725 5727 5729 5730 5731 5732 5732 5732 5732 5731 5730 5729 5727 5725 5724 5722 5720 5719 5718 5718 5717 5717 5717 5718 5718 5719 5719 5720 5721 5723 5724 5726 5728 5731
5706 5709 5712 5716 5719 5721 5722 5723 5724 5725 5724 5724 5723 5722 5720 5718 5716 5714 5712 5710 5708 5706 5705 5704 5704 5704 5704 5705 5706 5707 5708 5709 5711 5713 5715 5717 5719 5722
5702 5705 5708 5711 5713 5715 5716 5717 5717 5717 5716 5716 5714 5712 5710 5708 5705 5702 5700 5697 5695 5693 5692 5691 5690 5690 5691 5692 5693 5695 5697 5698 5700 5702 5705 5707 5710 5713
5699 5701 5704 5706 5708 5710 5710 5711 5711 5710 5709 5707 5706 5703 5700 5697 5694 5691 5688 5685 5681 5679 5678 5678 5677 5678 5678 5679 5681 5683 5685 5687 5689 5691 5694 5697 5700 5703
5696 5698 5700 5702 5704 5705 5705 5705 5705 5704 5702 5700 5697 5694 5691 5687 5683 5679 5676 5673 5670 5668 5666 5665 5665 5665 5666 5667 5669 5671 5674 5676 5679 5681 5684 5687 5691 5694
5693 5695 5697 5699 5700 5700 5700 5700 5698 5697 5695 5692 5689 5686 5682 5677 5673 5669 5665 5662 5659 5657 5655 5654 5654 5654 5656 5656 5658 5660 5662 5665 5668 5671 5674 5678 5681 5685
5691 5693 5694 5695 5696 5696 5695 5694 5693 5691 5688 5685 5682 5677 5673 5668 5664 5660 5656 5652 5649 5647 5645 5644 5643 5643 5644 5646 5647 5649 5652 5655 5658 5661 5665 5669 5672 5676
5689 5690 5691 5691 5691 5691 5690 5689 5687 5685 5682 5678 5674 5670 5666 5661 5657 5652 5648 5645 5641 5639 5637 5635 5635 5634 5635 5636 5638 5640 5642 5645 5648 5652 5656 5660 5663 5667
5686 5687 5688 5688 5688 5687 5686 5684 5682 5679 5676 5672 5669 5664 5660 5655 5650 5646 5642 5638 5635 5632 5629 5628 5627 5626 5627 5628 5629 5631 5633 5636 5639 5642 5646 5651 5654 5659
5684 5685 5685 5685 5684 5683 5682 5680 5678 5674 5671 5668 5663 5659 5654 5650 5645 5640 5636 5632 5629 5626 5623 5621 5620 5619 5620 5621 5622 5623 5626 5628 5631 5634 5637 5641 5646 5650
5681 5682 5682 5681 5680 5679 5678 5676 5673 5670 5667 5663 5659 5654 5650 5645 5640 5636 5631 5627 5624 5620 5617 5615 5613 5613 5613 5614 5615 5616 5618 5621 5623 5626 5629 5633 5637 5642
5678 5678 5678 5678 5677 5676 5674 5672 5669 5666 5663 5659 5655 5651 5646 5641 5636 5631 5627 5623 5619 5615 5612 5609 5607 5607 5607 5608 5609 5610 5611 5614 5616 5619 5622 5626 5630 5634
5673 5674 5674 5674 5673 5671 5670 5668 5665 5662 5659 5656 5652 5647 5642 5637 5632 5627 5622 5618 5614 5610 5607 5604 5602 5601 5601 5602 5602 5604 5605 5607 5610 5613 5616 5619 5623 5626
5669 5669 5669 5669 5668 5667 5665 5663 5661 5658 5655 5652 5648 5644 5639 5634 5629 5623 5618 5614 5610 5606 5603 5600 5597 5596 5595 5596 5596 5597 5599 5601 5604 5606 5609 5612 5616 5619
5664 5664 5664 5664 5663 5662 5661 5659 5657 5654 5651 5648 5644 5640 5635 5630 5625 5620 5615 5610 5606 5602 5598 5596 5593 5591 5590 5590 5591 5591 5593 5595 5597 5600 5603 5606 5609 5612
5658 5659 5659 5659 5658 5657 5656 5655 5652 5650 5647 5644 5640 5636 5631 5626 5621 5616 5611 5606 5602 5598 5594 5591 5588 5586 5585 5585 5585 5585 5587 5588 5590 5593 5596 5599 5601 5605
5653 5653 5653 5653 5653 5652 5651 5649 5647 5645 5642 5639 5635 5631 5626 5621 5616 5611 5607 5602 5598 5594 5590 5587 5584 5582 5580 5579 5579 5579 5580 5582 5583 5586 5589 5591 5594 5597